Location: Austin
(30.3000°N, 97.7500°W)
Time: 04:23:23
(UTC-05:00)

Cosmos 2100 Rocket - Pass Details

Date: 18 March 2023
Orbit: 956 x 1000 km, 82.9° (Epoch: 01 April)

Event Time Altitude Azimuth Distance (km) Brightness Sun altitude
Rises 21:44:44 0° 349° (N) 3,723 7.4 -27.2°
Reaches altitude 10° 21:47:18 10° 346° (NNW) 2,768 6.7 -27.7°
Maximum altitude 21:53:31 59° 268° (W) 1,132 4.5 -29.0°
Enters shadow 21:58:17 18° 194° (SSW) 2,237 5.8 -29.9°
